Tracking 19827 objects as of 22-Aug-2019
HD Live streaming from Space Station
objects crossing your sky now

FENGYUN 1C DEB

Track FENGYUN 1C DEB now!
10-day predictions


NORAD ID: 30548
Int'l Code: 1999-025AKN
Perigee: 801.6 km
Apogee: 920.8 km
Inclination: 99.7 °
Period: 102.0 minutes
Semi major axis: 7232 km
RCS: 0.0075 m2 (small)
Launch date: May 10, 1999
Source: People's Republic of China (PRC)
Launch site: Taiyaun Space Center, China (TSC)

Note: This is SATELLITE DEBRIS
aabbcc
Your satellite tracking list
Your tracking list is empty




NASA's NSSDC Master Catalog

Two Line Element Set (TLE):
1 30548U 99025AKN 19231.86735248 +.00000519 +00000-0 +30478-3 0  9994
2 30548 099.7316 253.1150 0082415 256.3397 229.4541 14.11553579643572
Source of the keplerian elements: AFSPC